Flag for Brazil Weather past 2 weeks in Belo Horizonte, Minas Gerais, Brazil

Now
66 °F

Passing clouds.


Feels Like: 66 °F
Forecast: 65 / 85 °F
Wind: 7 mph from Southeast

Location: Belo Horizonte Airport


UV Index: 7 (High)

Visibility: N/A


Pressure: 30.07 "Hg

Humidity: 88%

Dew point: 63 °F

Location of Belo HorizonteLocation

Historic Weather in Belo Horizonte

°F

Belo Horizonte temperature yesterday

Maximum temperature yesterday: 84 °F (at 1:00 PM)
Minimum temperature yesterday: 66 °F (at 4:00 AM)
Average temperature yesterday: 74 °F

Past Weeks' High & Low Weather Summary

 TemperatureHumidityPressure
High88 °F (Apr 10, 4:00 PM)100% (Apr 16, 12:00 PM)30.21 "Hg (Apr 16, 12:00 PM)
Low61 °F (Apr 16, 12:00 PM)30% (Apr 18, 5:00 AM)29.92 "Hg (Apr 9, 4:00 PM)
Average74 °F69%30.07 "Hg
* Reported Apr 5 5:00 AM — Apr 20 5:00 AM, Belo Horizonte, Weather by CustomWeather, © 2014

Note: Actual official high and low records may vary slightly from our data, if they occured in-between our weather recording intervals... More about our weather records

Advertising

Historic Weather Conditions — Data for Previous 24 hours

 ConditionsComfort  
Time TempWeatherWind HumidityBarometerVisibility
5:00 AM
Apr 20
66 °FPassing clouds.7 mph88%30.07 "HgN/A
4:00 AM66 °FPassing clouds.5 mph88%30.07 "HgN/A
3:00 AM70 °FPassing clouds.5 mph83%30.09 "HgN/A
2:00 AM68 °FPassing clouds.7 mph88%30.09 "HgN/A
1:00 AM68 °FPassing clouds.5 mph88%30.09 "HgN/A
12:00 AM70 °FPassing clouds.5 mph83%30.09 "HgN/A
11:00 PM
Apr 19
70 °FPassing clouds.6 mph83%30.09 "HgN/A
10:00 PM72 °FPassing clouds.5 mph78%30.09 "HgN/A
9:00 PM73 °FClear.6 mph74%30.09 "Hg10 mi
8:00 PM75 °FClear.7 mph74%30.07 "Hg10 mi
7:00 PM77 °FPassing clouds.7 mph69%30.07 "HgN/A
6:00 PM79 °FPassing clouds.5 mph61%30.04 "HgN/A
5:00 PM82 °FScattered clouds.No wind55%30.04 "HgN/A
4:00 PM82 °FScattered clouds.5 mph55%30.01 "HgN/A
3:00 PM82 °FBroken clouds.3 mph51%30.04 "HgN/A
2:10 PM79 °FPartly sunny.5 mph61%30.04 "HgN/A
2:00 PM75 °FLight rain. Partly sunny.9 mph69%30.04 "Hg2 mi
1:00 PM84 °FPartly sunny.2 mph48%30.07 "HgN/A
12:00 PM82 °FPartly sunny.3 mph51%30.09 "HgN/A
11:00 AM81 °FScattered clouds.3 mph58%30.12 "HgN/A
10:00 AM77 °FPassing clouds.5 mph65%30.15 "HgN/A
9:00 AM73 °FPassing clouds.5 mph78%30.15 "HgN/A
8:00 AM70 °FPassing clouds.2 mph88%30.12 "HgN/A
7:00 AM68 °FSunny.1 mph88%30.09 "Hg10 mi
6:00 AM66 °FClear.2 mph94%30.07 "Hg10 mi
Weather by CustomWeather, © 2014

See weather overview